"Sample Date","Sample Time","Sample Value","Units","Flow Rate","Sample Interval","Number Channels","Micron Size 0","Counts/Channel 0","Micron Size 1","Counts/Channel 1","Micron Size 2","Counts/Channel 2","Micron Size 3","Counts/Channel 3","Micron Size 4","Counts/Channel 4","Micron Size 5","Counts/Channel 5","Micron Size 6","Counts/Channel 6","Micron Size 7","Counts/Channel 7","Micron Size 8","Counts/Channel 8","Micron Size 9","Counts/Channel 9","Micron Size 10","Counts/Channel 10","Micron Size 11","Counts/Channel 11","Micron Size 12","Counts/Channel 12","Micron Size 13","Counts/Channel 13","Micron Size 14","Counts/Channel 14","Micron Size 15","Counts/Channel 15","Micron Size 16","Counts/Channel 16","Micron Size 17","Counts/Channel 17","Micron Size 18","Counts/Channel 18","Micron Size 19","Counts/Channel 19","Micron Size 20","Counts/Channel 20","Micron Size 21","Counts/Channel 21","Micron Size 22","Counts/Channel 22","Micron Size 23","Counts/Channel 23","Micron Size 24","Counts/Channel 24","Micron Size 25","Counts/Channel 25","Micron Size 26","Counts/Channel 26","Micron Size 27","Counts/Channel 27","Micron Size 28","Counts/Channel 28","Micron Size 29","Counts/Channel 29","Micron Size 30","Counts/Channel 30","Micron Size 31","Counts/Channel 31"
"04/02/08","02:00:01",15511.000,"cc",28299.584,6.00,6,0.100,13941.000,0.200,605.000,0.300,365.000,0.500,441.000,1.000,159.000,5.000,0
"04/02/08","02:00:07",15616.000,"cc",28300.648,6.00,6,0.100,14003.000,0.200,606.000,0.300,413.000,0.500,443.000,1.000,151.000,5.000,0
"04/02/08","02:00:13",15680.000,"cc",28245.316,6.00,6,0.100,14061.000,0.200,628.000,0.300,390.000,0.500,448.000,1.000,153.000,5.000,0
"04/02/08","02:00:19",15710.000,"cc",28294.398,6.00,6,0.100,14098.000,0.200,623.000,0.300,365.000,0.500,475.000,1.000,149.000,5.000,0
"04/02/08","02:00:25",15797.000,"cc",28363.096,6.00,6,0.100,14244.000,0.200,644.000,0.300,349.000,0.500,417.000,1.000,143.000,5.000,0
"04/02/08","02:00:31",15735.000,"cc",28378.379,6.00,6,0.100,14145.000,0.200,613.000,0.300,367.000,0.500,433.000,1.000,177.000,5.000,0
"04/02/08","02:00:37",15803.000,"cc",28329.609,6.00,6,0.100,14167.000,0.200,638.000,0.300,369.000,0.500,450.000,1.000,179.000,5.000,0
"04/02/08","02:00:43",16005.000,"cc",28332.236,6.00,6,0.100,14347.000,0.200,638.000,0.300,380.000,0.500,486.000,1.000,154.000,5.000,0
"04/02/08","02:00:49",15866.000,"cc",28249.764,6.00,6,0.100,14199.000,0.200,641.000,0.300,411.000,0.500,440.000,1.000,175.000,5.000,0
"04/02/08","02:00:55",16106.000,"cc",28360.766,6.00,6,0.100,14351.000,0.200,664.000,0.300,413.000,0.500,510.000,1.000,168.000,5.000,0
"04/02/08","02:01:01",15948.000,"cc",28288.211,6.00,6,0.100,14218.000,0.200,680.000,0.300,386.000,0.500,503.000,1.000,161.000,5.000,0
"04/02/08","02:01:07",15875.000,"cc",28297.107,6.00,6,0.100,14193.000,0.200,642.000,0.300,415.000,0.500,454.000,1.000,171.000,5.000,0
"04/02/08","02:01:13",15960.000,"cc",28316.430,6.00,6,0.100,14374.000,0.200,601.000,0.300,386.000,0.500,431.000,1.000,168.000,5.000,0
"04/02/08","02:01:19",16063.000,"cc",28328.660,6.00,6,0.100,14508.000,0.200,581.000,0.300,369.000,0.500,451.000,1.000,154.000,5.000,0
"04/02/08","02:01:25",15816.000,"cc",28284.121,6.00,6,0.100,14212.000,0.200,612.000,0.300,392.000,0.500,428.000,1.000,172.000,5.000,0
"04/02/08","02:01:31",16274.000,"cc",28334.258,6.00,6,0.100,14514.000,0.200,718.000,0.300,406.000,0.500,464.000,1.000,172.000,5.000,0
"04/02/08","02:01:37",16221.000,"cc",28284.703,6.00,6,0.100,14406.000,0.200,656.000,0.300,455.000,0.500,504.000,1.000,200.000,5.000,0
"04/02/08","02:01:43",15777.000,"cc",28317.496,6.00,6,0.100,14024.000,0.200,640.000,0.300,413.000,0.500,502.000,1.000,198.000,5.000,0
"04/02/08","02:01:49",16101.000,"cc",28338.406,6.00,6,0.100,14302.000,0.200,656.000,0.300,431.000,0.500,526.000,1.000,186.000,5.000,0
"04/02/08","02:01:55",16162.000,"cc",28325.338,6.00,6,0.100,14338.000,0.200,715.000,0.300,399.000,0.500,511.000,1.000,199.000,5.000,0
"04/02/08","02:02:01",16247.000,"cc",28271.773,6.00,6,0.100,14457.000,0.200,699.000,0.300,417.000,0.500,500.000,1.000,174.000,5.000,0
"04/02/08","02:02:07",16231.000,"cc",28313.953,6.00,6,0.100,14480.000,0.200,700.000,0.300,420.000,0.500,453.000,1.000,178.000,5.000,0
"04/02/08","02:02:13",15745.000,"cc",28351.615,6.00,6,0.100,14104.000,0.200,612.000,0.300,368.000,0.500,497.000,1.000,164.000,5.000,0
"04/02/08","02:02:19",16221.000,"cc",28283.883,6.00,6,0.100,14530.000,0.200,651.000,0.300,436.000,0.500,434.000,1.000,170.000,5.000,0
"04/02/08","02:02:25",16154.000,"cc",28332.525,6.00,6,0.100,14458.000,0.200,644.000,0.300,395.000,0.500,477.000,1.000,180.000,5.000,0
"04/02/08","02:02:31",15923.000,"cc",28238.369,6.00,6,0.100,14343.000,0.200,605.000,0.300,365.000,0.500,447.000,1.000,163.000,5.000,0
"04/02/08","02:02:37",16127.000,"cc",28380.547,6.00,6,0.100,14469.000,0.200,661.000,0.300,388.000,0.500,445.000,1.000,164.000,5.000,0
"04/02/08","02:02:43",16097.000,"cc",28295.484,6.00,6,0.100,14405.000,0.200,695.000,0.300,382.000,0.500,433.000,1.000,182.000,5.000,0
"04/02/08","02:02:49",16172.000,"cc",28349.936,6.00,6,0.100,14449.000,0.200,677.000,0.300,370.000,0.500,485.000,1.000,191.000,5.000,0
"04/02/08","02:02:55",16102.000,"cc",28284.111,6.00,6,0.100,14428.000,0.200,670.000,0.300,404.000,0.500,447.000,1.000,153.000,5.000,0
"04/02/08","02:03:01",16068.000,"cc",28289.539,6.00,6,0.100,14366.000,0.200,706.000,0.300,391.000,0.500,443.000,1.000,162.000,5.000,0
"04/02/08","02:03:07",16098.000,"cc",28300.176,6.00,6,0.100,14427.000,0.200,645.000,0.300,410.000,0.500,434.000,1.000,182.000,5.000,0
"04/02/08","02:03:13",15939.000,"cc",28338.563,6.00,6,0.100,14260.000,0.200,680.000,0.300,370.000,0.500,470.000,1.000,159.000,5.000,0
"04/02/08","02:03:19",15916.000,"cc",28353.434,6.00,6,0.100,14276.000,0.200,633.000,0.300,359.000,0.500,474.000,1.000,174.000,5.000,0
"04/02/08","02:03:25",16116.000,"cc",28347.740,6.00,6,0.100,14445.000,0.200,655.000,0.300,365.000,0.500,472.000,1.000,179.000,5.000,0
"04/02/08","02:03:31",16442.000,"cc",28348.856,6.00,6,0.100,14789.000,0.200,634.000,0.300,392.000,0.500,463.000,1.000,164.000,5.000,0
"04/02/08","02:03:37",16227.000,"cc",28301.531,6.00,6,0.100,14585.000,0.200,677.000,0.300,383.000,0.500,421.000,1.000,161.000,5.000,0
"04/02/08","02:03:43",16160.000,"cc",28284.764,6.00,6,0.100,14462.000,0.200,684.000,0.300,412.000,0.500,439.000,1.000,163.000,5.000,0
"04/02/08","02:03:49",16368.000,"cc",28324.830,6.00,6,0.100,14639.000,0.200,676.000,0.300,406.000,0.500,463.000,1.000,184.000,5.000,0
"04/02/08","02:03:55",16554.000,"cc",28292.816,6.00,6,0.100,14773.000,0.200,652.000,0.300,409.000,0.500,526.000,1.000,194.000,5.000,0
"04/02/08","02:04:01",16487.000,"cc",28310.977,6.00,6,0.100,14665.000,0.200,702.000,0.300,405.000,0.500,511.000,1.000,204.000,5.000,0
"04/02/08","02:04:07",16596.000,"cc",28276.137,6.00,6,0.100,14793.000,0.200,696.000,0.300,407.000,0.500,532.000,1.000,168.000,5.000,0
"04/02/08","02:04:13",16413.000,"cc",28339.609,6.00,6,0.100,14704.000,0.200,654.000,0.300,395.000,0.500,494.000,1.000,166.000,5.000,0
"04/02/08","02:04:19",16357.000,"cc",28333.932,6.00,6,0.100,14608.000,0.200,657.000,0.300,420.000,0.500,497.000,1.000,175.000,5.000,0
"04/02/08","02:04:25",16743.000,"cc",28286.836,6.00,6,0.100,14937.000,0.200,708.000,0.300,436.000,0.500,496.000,1.000,166.000,5.000,0
"04/02/08","02:04:31",16307.000,"cc",28404.756,6.00,6,0.100,14586.000,0.200,693.000,0.300,389.000,0.500,455.000,1.000,184.000,5.000,0
"04/02/08","02:04:37",16288.000,"cc",28271.871,6.00,6,0.100,14489.000,0.200,695.000,0.300,436.000,0.500,493.000,1.000,175.000,5.000,0
"04/02/08","02:04:43",16424.000,"cc",28329.246,6.00,6,0.100,14661.000,0.200,698.000,0.300,420.000,0.500,451.000,1.000,194.000,5.000,0
"04/02/08","02:04:49",16434.000,"cc",28265.176,6.00,6,0.100,14798.000,0.200,641.000,0.300,387.000,0.500,455.000,1.000,153.000,5.000,0
"04/02/08","02:04:55",16417.000,"cc",28352.371,6.00,6,0.100,14731.000,0.200,689.000,0.300,397.000,0.500,439.000,1.000,161.000,5.000,0
"04/02/08","02:05:01",16185.000,"cc",28273.373,6.00,6,0.100,14606.000,0.200,620.000,0.300,355.000,0.500,439.000,1.000,165.000,5.000,0
"04/02/08","02:05:07",16429.000,"cc",28302.182,6.00,6,0.100,14706.000,0.200,662.000,0.300,421.000,0.500,458.000,1.000,182.000,5.000,0
"04/02/08","02:05:13",16273.000,"cc",28326.666,6.00,6,0.100,14551.000,0.200,698.000,0.300,406.000,0.500,464.000,1.000,154.000,5.000,0
"04/02/08","02:05:19",16350.000,"cc",28328.856,6.00,6,0.100,14643.000,0.200,705.000,0.300,396.000,0.500,435.000,1.000,171.000,5.000,0
"04/02/08","02:05:25",16222.000,"cc",28279.490,6.00,6,0.100,14543.000,0.200,663.000,0.300,423.000,0.500,431.000,1.000,162.000,5.000,0
"04/02/08","02:05:31",16299.000,"cc",28351.930,6.00,6,0.100,14480.000,0.200,687.000,0.300,427.000,0.500,512.000,1.000,193.000,5.000,0
"04/02/08","02:05:37",16174.000,"cc",28315.320,6.00,6,0.100,14418.000,0.200,699.000,0.300,418.000,0.500,454.000,1.000,185.000,5.000,0
"04/02/08","02:05:43",16579.000,"cc",28239.951,6.00,6,0.100,14806.000,0.200,666.000,0.300,394.000,0.500,521.000,1.000,192.000,5.000,0
"04/02/08","02:05:49",16448.000,"cc",28336.732,6.00,6,0.100,14783.000,0.200,621.000,0.300,409.000,0.500,465.000,1.000,170.000,5.000,0
"04/02/08","02:05:55",16257.000,"cc",28333.305,6.00,6,0.100,14551.000,0.200,671.000,0.300,389.000,0.500,468.000,1.000,178.000,5.000,0
"04/02/08","02:06:01",16398.000,"cc",28322.148,6.00,6,0.100,14699.000,0.200,681.000,0.300,384.000,0.500,458.000,1.000,176.000,5.000,0
"04/02/08","02:06:07",16243.000,"cc",28347.705,6.00,6,0.100,14466.000,0.200,667.000,0.300,448.000,0.500,482.000,1.000,180.000,5.000,0
"04/02/08","02:06:13",16501.000,"cc",28316.309,6.00,6,0.100,14805.000,0.200,649.000,0.300,379.000,0.500,524.000,1.000,144.000,5.000,0
"04/02/08","02:06:19",16061.000,"cc",28299.404,6.00,6,0.100,14448.000,0.200,629.000,0.300,374.000,0.500,444.000,1.000,166.000,5.000,0
"04/02/08","02:06:25",15990.000,"cc",28297.397,6.00,6,0.100,14363.000,0.200,608.000,0.300,447.000,0.500,411.000,1.000,161.000,5.000,0
"04/02/08","02:06:31",16243.000,"cc",28287.010,6.00,6,0.100,14585.000,0.200,645.000,0.300,414.000,0.500,411.000,1.000,188.000,5.000,0
"04/02/08","02:06:37",16308.000,"cc",28361.764,6.00,6,0.100,14676.000,0.200,645.000,0.300,366.000,0.500,459.000,1.000,162.000,5.000,0
"04/02/08","02:06:43",16115.000,"cc",28363.877,6.00,6,0.100,14472.000,0.200,626.000,0.300,374.000,0.500,470.000,1.000,173.000,5.000,0
"04/02/08","02:06:49",16234.000,"cc",28344.106,6.00,6,0.100,14662.000,0.200,632.000,0.300,349.000,0.500,424.000,1.000,167.000,5.000,0
"04/02/08","02:06:55",16091.000,"cc",28299.000,6.00,6,0.100,14431.000,0.200,625.000,0.300,402.000,0.500,458.000,1.000,175.000,5.000,0
"04/02/08","02:07:01",16254.000,"cc",28334.371,6.00,6,0.100,14564.000,0.200,676.000,0.300,429.000,0.500,414.000,1.000,171.000,5.000,0
"04/02/08","02:07:07",16112.000,"cc",28290.818,6.00,6,0.100,14361.000,0.200,684.000,0.300,410.000,0.500,480.000,1.000,177.000,5.000,0
"04/02/08","02:07:13",16192.000,"cc",28318.619,6.00,6,0.100,14510.000,0.200,616.000,0.300,394.000,0.500,491.000,1.000,181.000,5.000,0
"04/02/08","02:07:19",16205.000,"cc",28249.018,6.00,6,0.100,14604.000,0.200,639.000,0.300,380.000,0.500,417.000,1.000,165.000,5.000,0
"04/02/08","02:07:25",16024.000,"cc",28358.258,6.00,6,0.100,14455.000,0.200,614.000,0.300,367.000,0.500,425.000,1.000,163.000,5.000,0
"04/02/08","02:07:31",16087.000,"cc",28315.652,6.00,6,0.100,14587.000,0.200,600.000,0.300,352.000,0.500,411.000,1.000,137.000,5.000,0
"04/02/08","02:07:37",16209.000,"cc",28314.996,6.00,6,0.100,14573.000,0.200,616.000,0.300,408.000,0.500,467.000,1.000,145.000,5.000,0
"04/02/08","02:07:43",16243.000,"cc",28340.496,6.00,6,0.100,14564.000,0.200,649.000,0.300,404.000,0.500,457.000,1.000,169.000,5.000,0
"04/02/08","02:07:49",16229.000,"cc",28328.484,6.00,6,0.100,14523.000,0.200,696.000,0.300,383.000,0.500,458.000,1.000,169.000,5.000,0
"04/02/08","02:07:55",16242.000,"cc",28287.588,6.00,6,0.100,14582.000,0.200,641.000,0.300,404.000,0.500,458.000,1.000,157.000,5.000,0
"04/02/08","02:08:01",15686.000,"cc",28240.170,6.00,6,0.100,14176.000,0.200,581.000,0.300,353.000,0.500,416.000,1.000,160.000,5.000,0
"04/02/08","02:08:07",15708.000,"cc",28340.094,6.00,6,0.100,14051.000,0.200,605.000,0.300,428.000,0.500,475.000,1.000,149.000,5.000,0
"04/02/08","02:08:13",15722.000,"cc",28435.027,6.00,6,0.100,14022.000,0.200,698.000,0.300,386.000,0.500,448.000,1.000,168.000,5.000,0
"04/02/08","02:08:19",15794.000,"cc",28402.635,6.00,6,0.100,14021.000,0.200,689.000,0.300,402.000,0.500,501.000,1.000,181.000,5.000,0
"04/02/08","02:08:25",15535.000,"cc",28284.482,6.00,6,0.100,13945.000,0.200,639.000,0.300,401.000,0.500,385.000,1.000,165.000,5.000,0
"04/02/08","02:08:31",15216.000,"cc",28240.047,6.00,6,0.100,13640.000,0.200,601.000,0.300,381.000,0.500,441.000,1.000,153.000,5.000,0
"04/02/08","02:08:37",15311.000,"cc",28355.977,6.00,6,0.100,13703.000,0.200,614.000,0.300,400.000,0.500,436.000,1.000,158.000,5.000,0
"04/02/08","02:08:43",15229.000,"cc",28300.977,6.00,6,0.100,13776.000,0.200,568.000,0.300,348.000,0.500,396.000,1.000,141.000,5.000,0
"04/02/08","02:08:49",15131.000,"cc",28277.856,6.00,6,0.100,13731.000,0.200,563.000,0.300,298.000,0.500,384.000,1.000,155.000,5.000,0
"04/02/08","02:08:55",15239.000,"cc",28331.900,6.00,6,0.100,13833.000,0.200,548.000,0.300,345.000,0.500,384.000,1.000,129.000,5.000,0
"04/02/08","02:09:01",15126.000,"cc",28422.486,6.00,6,0.100,13631.000,0.200,604.000,0.300,333.000,0.500,386.000,1.000,172.000,5.000,0
"04/02/08","02:09:07",15570.000,"cc",28276.137,6.00,6,0.100,14047.000,0.200,577.000,0.300,335.000,0.500,433.000,1.000,178.000,5.000,0
"04/02/08","02:09:13",15484.000,"cc",28311.627,6.00,6,0.100,14019.000,0.200,545.000,0.300,349.000,0.500,417.000,1.000,154.000,5.000,0
"04/02/08","02:09:19",15308.000,"cc",28310.551,6.00,6,0.100,13804.000,0.200,571.000,0.300,379.000,0.500,409.000,1.000,145.000,5.000,0
"04/02/08","02:09:25",15369.000,"cc",28248.943,6.00,6,0.100,13796.000,0.200,611.000,0.300,378.000,0.500,445.000,1.000,139.000,5.000,0
"04/02/08","02:09:31",15836.000,"cc",28321.494,6.00,6,0.100,14265.000,0.200,617.000,0.300,363.000,0.500,440.000,1.000,151.000,5.000,0
"04/02/08","02:09:37",16125.000,"cc",28307.186,6.00,6,0.100,14473.000,0.200,627.000,0.300,407.000,0.500,461.000,1.000,157.000,5.000,0
"04/02/08","02:09:43",16127.000,"cc",28345.791,6.00,6,0.100,14585.000,0.200,600.000,0.300,389.000,0.500,414.000,1.000,139.000,5.000,0
"04/02/08","02:09:49",15864.000,"cc",28415.945,6.00,6,0.100,14366.000,0.200,552.000,0.300,375.000,0.500,428.000,1.000,143.000,5.000,0
"04/02/08","02:09:55",15439.000,"cc",28186.004,6.00,6,0.100,13974.000,0.200,570.000,0.300,341.000,0.500,400.000,1.000,154.000,5.000,0
"04/02/08","02:10:01",15357.000,"cc",28344.090,6.00,6,0.100,13849.000,0.200,568.000,0.300,372.000,0.500,419.000,1.000,149.000,5.000,0
"04/02/08","02:10:07",15876.000,"cc",28409.176,6.00,6,0.100,14341.000,0.200,574.000,0.300,353.000,0.500,446.000,1.000,162.000,5.000,0
"04/02/08","02:10:13",16289.000,"cc",28268.891,6.00,6,0.100,14732.000,0.200,597.000,0.300,334.000,0.500,450.000,1.000,176.000,5.000,0
"04/02/08","02:10:19",16245.000,"cc",28262.109,6.00,6,0.100,14606.000,0.200,631.000,0.300,387.000,0.500,454.000,1.000,167.000,5.000,0
"04/02/08","02:10:25",16347.000,"cc",28354.154,6.00,6,0.100,14727.000,0.200,597.000,0.300,356.000,0.500,491.000,1.000,176.000,5.000,0
"04/02/08","02:10:31",16315.000,"cc",28297.996,6.00,6,0.100,14739.000,0.200,639.000,0.300,363.000,0.500,409.000,1.000,165.000,5.000,0
"04/02/08","02:10:37",16301.000,"cc",28305.928,6.00,6,0.100,14733.000,0.200,643.000,0.300,362.000,0.500,405.000,1.000,158.000,5.000,0
"04/02/08","02:10:43",16251.000,"cc",28341.678,6.00,6,0.100,14703.000,0.200,584.000,0.300,340.000,0.500,437.000,1.000,187.000,5.000,0
"04/02/08","02:10:49",16436.000,"cc",28334.268,6.00,6,0.100,14795.000,0.200,642.000,0.300,376.000,0.500,457.000,1.000,166.000,5.000,0
"04/02/08","02:10:55",16288.000,"cc",28303.467,6.00,6,0.100,14750.000,0.200,613.000,0.300,343.000,0.500,429.000,1.000,153.000,5.000,0
"04/02/08","02:11:01",16381.000,"cc",28421.092,6.00,6,0.100,14716.000,0.200,618.000,0.300,393.000,0.500,459.000,1.000,195.000,5.000,0
"04/02/08","02:11:07",16098.000,"cc",28319.678,6.00,6,0.100,14632.000,0.200,578.000,0.300,351.000,0.500,373.000,1.000,164.000,5.000,0
"04/02/08","02:11:13",16297.000,"cc",28246.471,6.00,6,0.100,14751.000,0.200,590.000,0.300,335.000,0.500,434.000,1.000,187.000,5.000,0
"04/02/08","02:11:19",16227.000,"cc",28258.315,6.00,6,0.100,14593.000,0.200,647.000,0.300,397.000,0.500,434.000,1.000,156.000,5.000,0
"04/02/08","02:11:25",16584.000,"cc",28396.078,6.00,6,0.100,14960.000,0.200,644.000,0.300,408.000,0.500,434.000,1.000,138.000,5.000,0
"04/02/08","02:11:31",16496.000,"cc",28248.354,6.00,6,0.100,14828.000,0.200,647.000,0.300,403.000,0.500,441.000,1.000,177.000,5.000,0
"04/02/08","02:11:37",16553.000,"cc",28340.697,6.00,6,0.100,14986.000,0.200,617.000,0.300,384.000,0.500,405.000,1.000,161.000,5.000,0
"04/02/08","02:11:43",16396.000,"cc",28360.238,6.00,6,0.100,14720.000,0.200,651.000,0.300,378.000,0.500,476.000,1.000,171.000,5.000,0
"04/02/08","02:11:49",16820.000,"cc",28278.188,6.00,6,0.100,15128.000,0.200,626.000,0.300,419.000,0.500,466.000,1.000,181.000,5.000,0
"04/02/08","02:11:55",16508.000,"cc",28381.650,6.00,6,0.100,14880.000,0.200,677.000,0.300,381.000,0.500,408.000,1.000,162.000,5.000,0
"04/02/08","02:12:01",16831.000,"cc",28274.010,6.00,6,0.100,15141.000,0.200,687.000,0.300,388.000,0.500,446.000,1.000,169.000,5.000,0
"04/02/08","02:12:07",16759.000,"cc",28289.811,6.00,6,0.100,15105.000,0.200,647.000,0.300,381.000,0.500,472.000,1.000,154.000,5.000,0
"04/02/08","02:12:13",16562.000,"cc",28265.238,6.00,6,0.100,14953.000,0.200,654.000,0.300,384.000,0.500,424.000,1.000,147.000,5.000,0
"04/02/08","02:12:19",16782.000,"cc",28290.184,6.00,6,0.100,15059.000,0.200,666.000,0.300,396.000,0.500,482.000,1.000,179.000,5.000,0
"04/02/08","02:12:25",16709.000,"cc",28362.793,6.00,6,0.100,15062.000,0.200,631.000,0.300,380.000,0.500,464.000,1.000,172.000,5.000,0
"04/02/08","02:12:31",16714.000,"cc",28314.656,6.00,6,0.100,14950.000,0.200,684.000,0.300,399.000,0.500,480.000,1.000,201.000,5.000,0
"04/02/08","02:12:37",17079.000,"cc",28278.897,6.00,6,0.100,15356.000,0.200,653.000,0.300,393.000,0.500,490.000,1.000,187.000,5.000,0
"04/02/08","02:12:43",17071.000,"cc",28317.674,6.00,6,0.100,15289.000,0.200,716.000,0.300,424.000,0.500,458.000,1.000,184.000,5.000,0
"04/02/08","02:12:49",17122.000,"cc",28307.543,6.00,6,0.100,15436.000,0.200,658.000,0.300,385.000,0.500,473.000,1.000,170.000,5.000,0
"04/02/08","02:12:55",17236.000,"cc",28360.203,6.00,6,0.100,15418.000,0.200,711.000,0.300,419.000,0.500,515.000,1.000,173.000,5.000,0
"04/02/08","02:13:01",16978.000,"cc",28307.035,6.00,6,0.100,15144.000,0.200,656.000,0.300,474.000,0.500,521.000,1.000,183.000,5.000,0
"04/02/08","02:13:07",17096.000,"cc",28290.141,6.00,6,0.100,15417.000,0.200,661.000,0.300,393.000,0.500,460.000,1.000,165.000,5.000,0
"04/02/08","02:13:13",16637.000,"cc",28293.672,6.00,6,0.100,14943.000,0.200,662.000,0.300,410.000,0.500,476.000,1.000,146.000,5.000,0
"04/02/08","02:13:19",16984.000,"cc",28364.137,6.00,6,0.100,15273.000,0.200,687.000,0.300,395.000,0.500,442.000,1.000,187.000,5.000,0
"04/02/08","02:13:25",17079.000,"cc",28364.818,6.00,6,0.100,15314.000,0.200,713.000,0.300,412.000,0.500,457.000,1.000,183.000,5.000,0
"04/02/08","02:13:31",17181.000,"cc",28283.738,6.00,6,0.100,15332.000,0.200,679.000,0.300,475.000,0.500,497.000,1.000,198.000,5.000,0
"04/02/08","02:13:37",17327.000,"cc",28292.486,6.00,6,0.100,15497.000,0.200,703.000,0.300,427.000,0.500,517.000,1.000,183.000,5.000,0
"04/02/08","02:13:43",16920.000,"cc",28326.727,6.00,6,0.100,15123.000,0.200,719.000,0.300,409.000,0.500,487.000,1.000,182.000,5.000,0
"04/02/08","02:13:49",16878.000,"cc",28285.650,6.00,6,0.100,15126.000,0.200,691.000,0.300,411.000,0.500,458.000,1.000,192.000,5.000,0
"04/02/08","02:13:55",16680.000,"cc",28337.631,6.00,6,0.100,15023.000,0.200,635.000,0.300,397.000,0.500,463.000,1.000,162.000,5.000,0
"04/02/08","02:14:01",17302.000,"cc",28304.561,6.00,6,0.100,15528.000,0.200,679.000,0.300,427.000,0.500,483.000,1.000,185.000,5.000,0
"04/02/08","02:14:07",16812.000,"cc",28315.117,6.00,6,0.100,15140.000,0.200,673.000,0.300,390.000,0.500,433.000,1.000,176.000,5.000,0
"04/02/08","02:14:13",16759.000,"cc",28317.252,6.00,6,0.100,15094.000,0.200,624.000,0.300,429.000,0.500,435.000,1.000,177.000,5.000,0
"04/02/08","02:14:19",17067.000,"cc",28285.174,6.00,6,0.100,15369.000,0.200,643.000,0.300,373.000,0.500,495.000,1.000,187.000,5.000,0
"04/02/08","02:14:25",16917.000,"cc",28335.781,6.00,6,0.100,15177.000,0.200,670.000,0.300,400.000,0.500,501.000,1.000,169.000,5.000,0
"04/02/08","02:14:31",17110.000,"cc",28358.607,6.00,6,0.100,15362.000,0.200,654.000,0.300,418.000,0.500,486.000,1.000,190.000,5.000,0
"04/02/08","02:14:37",17316.000,"cc",28364.043,6.00,6,0.100,15467.000,0.200,710.000,0.300,425.000,0.500,518.000,1.000,196.000,5.000,0
"04/02/08","02:14:43",17369.000,"cc",28246.961,6.00,6,0.100,15582.000,0.200,678.000,0.300,439.000,0.500,481.000,1.000,189.000,5.000,0
"04/02/08","02:14:49",17187.000,"cc",28341.031,6.00,6,0.100,15339.000,0.200,699.000,0.300,464.000,0.500,473.000,1.000,212.000,5.000,0
"04/02/08","02:14:55",17017.000,"cc",28338.897,6.00,6,0.100,15280.000,0.200,675.000,0.300,405.000,0.500,483.000,1.000,174.000,5.000,0
"04/02/08","02:15:01",17059.000,"cc",28310.459,6.00,6,0.100,15289.000,0.200,686.000,0.300,378.000,0.500,507.000,1.000,199.000,5.000,0
"04/02/08","02:15:07",17212.000,"cc",28326.404,6.00,6,0.100,15457.000,0.200,665.000,0.300,399.000,0.500,506.000,1.000,185.000,5.000,0
"04/02/08","02:15:13",17173.000,"cc",28355.545,6.00,6,0.100,15329.000,0.200,715.000,0.300,420.000,0.500,528.000,1.000,181.000,5.000,0
"04/02/08","02:15:19",17365.000,"cc",28336.756,6.00,6,0.100,15554.000,0.200,717.000,0.300,405.000,0.500,528.000,1.000,161.000,5.000,0
"04/02/08","02:15:25",17190.000,"cc",28273.600,6.00,6,0.100,15388.000,0.200,672.000,0.300,416.000,0.500,518.000,1.000,196.000,5.000,0
"04/02/08","02:15:31",17060.000,"cc",28302.094,6.00,6,0.100,15334.000,0.200,655.000,0.300,392.000,0.500,483.000,1.000,196.000,5.000,0
"04/02/08","02:15:37",17009.000,"cc",28270.395,6.00,6,0.100,15312.000,0.200,645.000,0.300,415.000,0.500,467.000,1.000,170.000,5.000,0
"04/02/08","02:15:43",17126.000,"cc",28289.283,6.00,6,0.100,15328.000,0.200,714.000,0.300,402.000,0.500,485.000,1.000,197.000,5.000,0
"04/02/08","02:15:49",17001.000,"cc",28334.945,6.00,6,0.100,15236.000,0.200,690.000,0.300,383.000,0.500,495.000,1.000,197.000,5.000,0
"04/02/08","02:15:55",17144.000,"cc",28345.397,6.00,6,0.100,15316.000,0.200,697.000,0.300,407.000,0.500,515.000,1.000,209.000,5.000,0
"04/02/08","02:16:01",17240.000,"cc",28290.291,6.00,6,0.100,15481.000,0.200,688.000,0.300,433.000,0.500,482.000,1.000,156.000,5.000,0
"04/02/08","02:16:07",17589.000,"cc",28372.061,6.00,6,0.100,15751.000,0.200,670.000,0.300,459.000,0.500,508.000,1.000,201.000,5.000,0
"04/02/08","02:16:13",17407.000,"cc",28310.410,6.00,6,0.100,15475.000,0.200,755.000,0.300,442.000,0.500,562.000,1.000,173.000,5.000,0
"04/02/08","02:16:19",17623.000,"cc",28341.551,6.00,6,0.100,15692.000,0.200,723.000,0.300,418.000,0.500,554.000,1.000,236.000,5.000,0
"04/02/08","02:16:25",17289.000,"cc",28288.191,6.00,6,0.100,15357.000,0.200,742.000,0.300,458.000,0.500,531.000,1.000,201.000,5.000,0
"04/02/08","02:16:31",17432.000,"cc",28384.330,6.00,6,0.100,15552.000,0.200,701.000,0.300,444.000,0.500,530.000,1.000,205.000,5.000,0
"04/02/08","02:16:37",17367.000,"cc",28262.459,6.00,6,0.100,15508.000,0.200,718.000,0.300,419.000,0.500,524.000,1.000,198.000,5.000,0
"04/02/08","02:16:43",17457.000,"cc",28345.826,6.00,6,0.100,15477.000,0.200,736.000,0.300,458.000,0.500,586.000,1.000,200.000,5.000,0